| time (UTC) | temp F | wind direction | speed MPH | gust MPH | rain 1hr in | rain 24hr in | rain mn in | humidity % | barometer mb |
| 20260502220055 | 66 | 360 | 2.0 | 13.0 | 0.00 | 0.00 | 0.00 | 36 | 1015.4 |
| 20260502215553 | 66 | 360 | 5.0 | 13.0 | 0.00 | 0.00 | 0.00 | 36 | 1015.4 |
| 20260502215053 | 66 | 360 | 1.0 | 12.0 | 0.00 | 0.00 | 0.00 | 36 | 1015.4 |
| 20260502214558 | 66 | 0 | 1.0 | 12.0 | 0.00 | 0.00 | 0.00 | 36 | 1015.3 |
| 20260502214054 | 66 | 360 | 3.0 | 12.0 | 0.00 | 0.00 | 0.00 | 35 | 1015.4 |
| 20260502213553 | 66 | 0 | 2.0 | 12.0 | 0.00 | 0.00 | 0.00 | 36 | 1015.3 |
| 20260502213054 | 66 | 360 | 4.0 | 12.0 | 0.00 | 0.00 | 0.00 | 35 | 1015.2 |
| 20260502212553 | 66 | 360 | 2.0 | 12.0 | 0.00 | 0.00 | 0.00 | 36 | 1015.1 |
| 20260502212053 | 66 | 360 | 3.0 | 12.0 | 0.00 | 0.00 | 0.00 | 35 | 1015.2 |
| 20260502211559 | 67 | 360 | 2.0 | 10.0 | 0.00 | 0.00 | 0.00 | 35 | 1015.1 |
| 20260502211057 | 66 | 360 | 3.0 | 12.0 | 0.00 | 0.00 | 0.00 | 35 | 1015.2 |
| 20260502210554 | 67 | 360 | 4.0 | 12.0 | 0.00 | 0.00 | 0.00 | 34 | 1015.3 |
| 20260502210110 | 67 | 0 | 3.0 | 12.0 | 0.00 | 0.00 | 0.00 | 34 | 1015.3 |
| 20260502205554 | 67 | 360 | 5.0 | 12.0 | 0.00 | 0.00 | 0.00 | 35 | 1015.2 |
| 20260502205055 | 67 | 360 | 4.0 | 11.0 | 0.00 | 0.00 | 0.00 | 35 | 1015.2 |
| 20260502204559 | 67 | 360 | 2.0 | 14.0 | 0.00 | 0.00 | 0.00 | 35 | 1015.1 |
| 20260502204053 | 67 | 360 | 4.0 | 14.0 | 0.00 | 0.00 | 0.00 | 33 | 1015.0 |
| 20260502203553 | 67 | 360 | 4.0 | 14.0 | 0.00 | 0.00 | 0.00 | 34 | 1015.1 |
| 20260502203057 | 67 | 360 | 4.0 | 11.0 | 0.00 | 0.00 | 0.00 | 36 | 1015.2 |
| 20260502202553 | 67 | 360 | 4.0 | 12.0 | 0.00 | 0.00 | 0.00 | 34 | 1015.2 |
| 20260502202052 | 67 | 360 | 5.0 | 12.0 | 0.00 | 0.00 | 0.00 | 36 | 1015.1 |
| 20260502201554 | 67 | 360 | 4.0 | 12.0 | 0.00 | 0.00 | 0.00 | 37 | 1015.2 |
| 20260502201053 | 67 | 360 | 4.0 | 9.0 | 0.00 | 0.00 | 0.00 | 36 | 1015.3 |
| 20260502200553 | 67 | 360 | 3.0 | 13.0 | 0.00 | 0.00 | 0.00 | 37 | 1015.2 |
| 20260502200101 | 67 | 360 | 5.0 | 13.0 | 0.00 | 0.00 | 0.00 | 38 | 1015.4 |
| 20260502195552 | 67 | 360 | 3.0 | 13.0 | 0.00 | 0.00 | 0.00 | 37 | 1015.4 |
| 20260502195054 | 66 | 0 | 4.0 | 11.0 | 0.00 | 0.00 | 0.00 | 37 | 1015.4 |
| 20260502194558 | 66 | 360 | 4.0 | 11.0 | 0.00 | 0.00 | 0.00 | 36 | 1015.5 |
| 20260502194055 | 66 | 360 | 4.0 | 10.0 | 0.00 | 0.00 | 0.00 | 38 | 1015.5 |
| 20260502193553 | 66 | 360 | 1.0 | 10.0 | 0.00 | 0.00 | 0.00 | 37 | 1015.7 |
| 20260502193109 | 66 | 0 | 5.0 | 10.0 | 0.00 | 0.00 | 0.00 | 35 | 1015.6 |
| 20260502192552 | 66 | 360 | 3.0 | 11.0 | 0.00 | 0.00 | 0.00 | 37 | 1015.7 |
| 20260502192052 | 66 | 360 | 4.0 | 11.0 | 0.00 | 0.00 | 0.00 | 36 | 1015.8 |
| 20260502191559 | 66 | 360 | 3.0 | 14.0 | 0.00 | 0.00 | 0.00 | 36 | 1015.8 |
| 20260502191052 | 66 | 360 | 5.0 | 14.0 | 0.00 | 0.00 | 0.00 | 37 | 1015.7 |
| 20260502190553 | 66 | 360 | 4.0 | 13.0 | 0.00 | 0.00 | 0.00 | 37 | 1015.7 |
| 20260502190106 | 66 | 360 | 4.0 | 13.0 | 0.00 | 0.00 | 0.00 | 37 | 1015.8 |
| 20260502185554 | 66 | 360 | 6.0 | 12.0 | 0.00 | 0.00 | 0.00 | 38 | 1015.8 |
| 20260502185053 | 65 | 360 | 2.0 | 14.0 | 0.00 | 0.00 | 0.00 | 39 | 1015.9 |
| 20260502184559 | 65 | 360 | 5.0 | 14.0 | 0.00 | 0.00 | 0.00 | 40 | 1016.0 |
| 20260502184053 | 65 | 360 | 4.0 | 10.0 | 0.00 | 0.00 | 0.00 | 40 | 1016.0 |
| 20260502183553 | 65 | 360 | 4.0 | 13.0 | 0.00 | 0.00 | 0.00 | 37 | 1016.1 |
| 20260502183109 | 65 | 360 | 3.0 | 13.0 | 0.00 | 0.00 | 0.00 | 39 | 1016.0 |
| 20260502182552 | 65 | 360 | 4.0 | 15.0 | 0.00 | 0.00 | 0.00 | 37 | 1016.1 |
| 20260502182052 | 66 | 360 | 3.0 | 15.0 | 0.00 | 0.00 | 0.00 | 38 | 1016.1 |
| 20260502181552 | 65 | 360 | 6.0 | 15.0 | 0.00 | 0.00 | 0.00 | 39 | 1016.1 |
| 20260502181053 | 65 | 360 | 4.0 | 13.0 | 0.00 | 0.00 | 0.00 | 40 | 1016.1 |
| 20260502180557 | 65 | 360 | 4.0 | 12.0 | 0.00 | 0.00 | 0.00 | 38 | 1016.1 |
| 20260502164052 | 62 | 360 | 3.0 | 13.0 | 0.00 | 0.00 | 0.00 | 43 | 1016.8 |
| 20260502163552 | 62 | 360 | 6.0 | 12.0 | 0.00 | 0.00 | 0.00 | 42 | 1016.8 |
| 20260502163056 | 62 | 360 | 4.0 | 10.0 | 0.00 | 0.00 | 0.00 | 42 | 1016.9 |
| 20260502162553 | 62 | 360 | 4.0 | 11.0 | 0.00 | 0.00 | 0.00 | 43 | 1017.0 |
| 20260502162052 | 62 | 360 | 4.0 | 11.0 | 0.00 | 0.00 | 0.00 | 42 | 1017.1 |
| 20260502161611 | 61 | 360 | 3.0 | 12.0 | 0.00 | 0.00 | 0.00 | 43 | 1017.1 |
| 20260502161055 | 61 | 360 | 5.0 | 12.0 | 0.00 | 0.00 | 0.00 | 44 | 1017.0 |
| 20260502160554 | 61 | 360 | 3.0 | 11.0 | 0.00 | 0.00 | 0.00 | 44 | 1017.0 |
| 20260502152057 | 61 | 360 | 3.0 | 13.0 | 0.00 | 0.00 | 0.00 | 43 | 1016.6 |
| 20260502151606 | 61 | 360 | 2.0 | 13.0 | 0.00 | 0.00 | 0.00 | 43 | 1016.6 |
| 20260502151052 | 61 | 360 | 5.0 | 14.0 | 0.00 | 0.00 | 0.00 | 44 | 1016.6 |
| 20260502150552 | 61 | 360 | 5.0 | 14.0 | 0.00 | 0.00 | 0.00 | 45 | 1016.6 |
| 20260502130552 | 55 | 360 | 4.0 | 13.0 | 0.00 | 0.00 | 0.00 | 61 | 1016.1 |
| 20260502123552 | 53 | 360 | 2.0 | 8.0 | 0.00 | 0.00 | 0.00 | 65 | 1015.8 |
| 20260502123053 | 53 | 360 | 3.0 | 8.0 | 0.00 | 0.00 | 0.00 | 66 | 1015.9 |
| 20260502122552 | 53 | 360 | 1.0 | 6.0 | 0.00 | 0.00 | 0.00 | 66 | 1015.7 |
| 20260502122052 | 52 | 360 | 2.0 | 6.0 | 0.00 | 0.00 | 0.00 | 66 | 1015.8 |
| 20260502121554 | 52 | 360 | 2.0 | 5.0 | 0.00 | 0.00 | 0.00 | 66 | 1015.5 |
| 20260502121053 | 52 | 360 | 1.0 | 6.0 | 0.00 | 0.00 | 0.00 | 66 | 1015.5 |
| 20260502120552 | 52 | 360 | 1.0 | 6.0 | 0.00 | 0.00 | 0.00 | 66 | 1015.6 |
| 20260502115553 | 52 | 360 | 1.0 | 5.0 | 0.00 | 0.00 | 0.00 | 65 | 1015.5 |
| 20260502115057 | 52 | 360 | 1.0 | 5.0 | 0.00 | 0.00 | 0.00 | 65 | 1015.7 |
| 20260502114554 | 52 | 360 | 1.0 | 5.0 | 0.00 | 0.00 | 0.00 | 65 | 1015.6 |
| 20260502114053 | 52 | 360 | 1.0 | 5.0 | 0.00 | 0.00 | 0.00 | 65 | 1015.6 |
| 20260502113555 | 52 | 0 | 1.0 | 5.0 | 0.00 | 0.00 | 0.00 | 65 | 1015.5 |
| 20260502113051 | 52 | 0 | 1.0 | 8.0 | 0.00 | 0.00 | 0.00 | 64 | 1015.5 |
| 20260502112552 | 52 | 360 | 2.0 | 8.0 | 0.00 | 0.00 | 0.00 | 64 | 1015.4 |
| 20260502112052 | 52 | 360 | 1.0 | 6.0 | 0.00 | 0.00 | 0.00 | 64 | 1015.6 |
| 20260502111605 | 52 | 360 | 1.0 | 6.0 | 0.00 | 0.00 | 0.00 | 64 | 1015.5 |
| 20260502111052 | 52 | 360 | 2.0 | 6.0 | 0.00 | 0.00 | 0.00 | 64 | 1015.5 |
| 20260502110552 | 52 | 0 | 2.0 | 6.0 | 0.00 | 0.00 | 0.00 | 64 | 1015.5 |
| 20260502110055 | 52 | 360 | 1.0 | 5.0 | 0.00 | 0.00 | 0.00 | 64 | 1015.4 |
| 20260502105553 | 52 | 360 | 2.0 | 5.0 | 0.00 | 0.00 | 0.00 | 63 | 1015.3 |
| 20260502105052 | 52 | 360 | 2.0 | 8.0 | 0.00 | 0.00 | 0.00 | 64 | 1015.1 |
| 20260502104558 | 52 | 360 | 2.0 | 8.0 | 0.00 | 0.00 | 0.00 | 63 | 1015.0 |
| 20260502104053 | 53 | 360 | 1.0 | 5.0 | 0.00 | 0.00 | 0.00 | 63 | 1015.1 |
| 20260502103556 | 53 | 360 | 1.0 | 6.0 | 0.00 | 0.00 | 0.00 | 63 | 1015.2 |
| 20260502103055 | 53 | 0 | 1.0 | 8.0 | 0.00 | 0.00 | 0.00 | 63 | 1015.1 |
| 20260502102553 | 53 | 360 | 2.0 | 8.0 | 0.00 | 0.00 | 0.00 | 63 | 1015.0 |
| 20260502102052 | 53 | 360 | 2.0 | 6.0 | 0.00 | 0.00 | 0.00 | 62 | 1015.0 |
| 20260502101554 | 53 | 360 | 1.0 | 5.0 | 0.00 | 0.00 | 0.00 | 62 | 1015.2 |
| 20260502101052 | 53 | 360 | 1.0 | 5.0 | 0.00 | 0.00 | 0.00 | 62 | 1015.3 |
| 20260502100552 | 53 | 360 | 1.0 | 5.0 | 0.00 | 0.00 | 0.00 | 62 | 1015.2 |
| 20260502091052 | 54 | 360 | 2.0 | 9.0 | 0.00 | 0.00 | 0.00 | 58 | 1015.0 |
| 20260502090552 | 54 | 360 | 3.0 | 8.0 | 0.00 | 0.00 | 0.00 | 58 | 1015.0 |
| 20260502090111 | 54 | 360 | 2.0 | 8.0 | 0.00 | 0.00 | 0.00 | 58 | 1015.3 |
| 20260502071054 | 56 | 360 | 2.0 | 8.0 | 0.00 | 0.00 | 0.00 | 52 | 1015.6 |
| 20260502070552 | 56 | 360 | 1.0 | 8.0 | 0.00 | 0.00 | 0.00 | 53 | 1016.0 |
| 20260502070104 | 56 | 0 | 2.0 | 8.0 | 0.00 | 0.00 | 0.00 | 52 | 1016.1 |
| 20260502065552 | 56 | 360 | 2.0 | 6.0 | 0.00 | 0.00 | 0.00 | 53 | 1016.2 |
| 20260502065052 | 56 | 360 | 1.0 | 5.0 | 0.00 | 0.00 | 0.00 | 53 | 1016.1 |
| 20260502064551 | 56 | 360 | 0.0 | 4.0 | 0.00 | 0.00 | 0.00 | 53 | 1016.1 |
| 20260502064052 | 56 | 0 | 1.0 | 4.0 | 0.00 | 0.00 | 0.00 | 52 | 1016.1 |
| 20260502063553 | 57 | 0 | 0.0 | 5.0 | 0.00 | 0.00 | 0.00 | 52 | 1016.1 |
| 20260502063055 | 57 | 0 | 1.0 | 5.0 | 0.00 | 0.00 | 0.00 | 52 | 1015.8 |
| 20260502062553 | 57 | 0 | 0.0 | 5.0 | 0.00 | 0.00 | 0.00 | 52 | 1015.9 |
| 20260502062052 | 57 | 360 | 1.0 | 5.0 | 0.00 | 0.00 | 0.00 | 51 | 1015.9 |
| 20260502061555 | 57 | 360 | 1.0 | 5.0 | 0.00 | 0.00 | 0.00 | 51 | 1015.9 |
| 20260502061051 | 57 | 0 | 1.0 | 5.0 | 0.00 | 0.00 | 0.00 | 51 | 1016.0 |
| 20260502060555 | 57 | 360 | 1.0 | 5.0 | 0.00 | 0.00 | 0.00 | 51 | 1016.2 |
| 20260502060053 | 57 | 360 | 2.0 | 5.0 | 0.00 | 0.00 | 0.00 | 51 | 1016.3 |
| 20260502055552 | 57 | 360 | 2.0 | 5.0 | 0.00 | 0.00 | 0.00 | 51 | 1016.2 |
| 20260502055053 | 57 | 360 | 1.0 | 4.0 | 0.00 | 0.00 | 0.00 | 51 | 1016.2 |
| 20260502054553 | 57 | 0 | 1.0 | 4.0 | 0.00 | 0.00 | 0.00 | 50 | 1016.0 |
| 20260502054052 | 58 | 0 | 2.0 | 8.0 | 0.00 | 0.00 | 0.00 | 50 | 1016.0 |
| 20260502053552 | 58 | 0 | 2.0 | 8.0 | 0.00 | 0.00 | 0.00 | 50 | 1015.8 |
| 20260502053119 | 58 | 0 | 2.0 | 8.0 | 0.00 | 0.00 | 0.00 | 50 | 1015.8 |
| 20260502052552 | 58 | 360 | 2.0 | 5.0 | 0.00 | 0.00 | 0.00 | 50 | 1015.7 |
| 20260502052052 | 58 | 360 | 1.0 | 5.0 | 0.00 | 0.00 | 0.00 | 50 | 1015.5 |
| 20260502051604 | 58 | 360 | 1.0 | 6.0 | 0.00 | 0.00 | 0.00 | 49 | 1015.5 |
| 20260502051052 | 58 | 0 | 2.0 | 10.0 | 0.00 | 0.00 | 0.00 | 49 | 1015.7 |
| 20260502050554 | 58 | 360 | 1.0 | 10.0 | 0.00 | 0.00 | 0.00 | 49 | 1015.6 |
| 20260502050056 | 58 | 360 | 4.0 | 10.0 | 0.00 | 0.00 | 0.00 | 48 | 1015.6 |
| 20260502045552 | 58 | 360 | 3.0 | 9.0 | 0.00 | 0.00 | 0.00 | 49 | 1015.7 |
| 20260502045055 | 59 | 360 | 3.0 | 11.0 | 0.00 | 0.00 | 0.00 | 50 | 1015.8 |
| 20260502044554 | 59 | 360 | 2.0 | 11.0 | 0.00 | 0.00 | 0.00 | 50 | 1015.8 |
| 20260502044054 | 59 | 360 | 3.0 | 12.0 | 0.00 | 0.00 | 0.00 | 50 | 1015.8 |
| 20260502043552 | 59 | 360 | 4.0 | 12.0 | 0.00 | 0.00 | 0.00 | 50 | 1015.7 |
| 20260502043057 | 59 | 360 | 3.0 | 10.0 | 0.00 | 0.00 | 0.00 | 52 | 1015.7 |
| 20260502042552 | 59 | 360 | 3.0 | 9.0 | 0.00 | 0.00 | 0.00 | 53 | 1015.6 |
| 20260502042052 | 59 | 360 | 3.0 | 9.0 | 0.00 | 0.00 | 0.00 | 54 | 1015.7 |
| 20260502041621 | 59 | 360 | 2.0 | 9.0 | 0.00 | 0.00 | 0.00 | 54 | 1015.7 |
| 20260502041052 | 59 | 360 | 2.0 | 9.0 | 0.00 | 0.00 | 0.00 | 55 | 1015.8 |
| 20260502040552 | 60 | 360 | 2.0 | 8.0 | 0.00 | 0.00 | 0.00 | 56 | 1015.8 |
| 20260502040057 | 60 | 360 | 1.0 | 6.0 | 0.00 | 0.00 | 0.00 | 57 | 1016.0 |
| 20260502035552 | 60 | 360 | 1.0 | 6.0 | 0.00 | 0.00 | 0.00 | 56 | 1015.8 |
| 20260502035052 | 60 | 360 | 1.0 | 9.0 | 0.00 | 0.00 | 0.00 | 56 | 1015.9 |
| 20260502034559 | 60 | 360 | 2.0 | 9.0 | 0.00 | 0.00 | 0.00 | 57 | 1015.8 |
| 20260502034052 | 60 | 360 | 3.0 | 10.0 | 0.00 | 0.00 | 0.00 | 56 | 1015.7 |
| 20260502033551 | 60 | 360 | 1.0 | 10.0 | 0.00 | 0.00 | 0.00 | 57 | 1015.7 |
| 20260502033106 | 60 | 360 | 4.0 | 11.0 | 0.00 | 0.00 | 0.00 | 58 | 1015.8 |
| 20260502032552 | 60 | 360 | 2.0 | 12.0 | 0.00 | 0.00 | 0.00 | 58 | 1015.7 |
| 20260502032052 | 60 | 360 | 5.0 | 12.0 | 0.00 | 0.00 | 0.00 | 58 | 1015.6 |
| 20260502031558 | 61 | 360 | 4.0 | 11.0 | 0.00 | 0.00 | 0.00 | 59 | 1015.8 |
| 20260502031055 | 61 | 360 | 0.0 | 5.0 | 0.00 | 0.00 | 0.00 | 60 | 1015.8 |
| 20260502030554 | 61 | 0 | 1.0 | 11.0 | 0.00 | 0.00 | 0.00 | 60 | 1015.7 |
| 20260502030057 | 61 | 0 | 2.0 | 11.0 | 0.00 | 0.00 | 0.00 | 60 | 1015.7 |
| 20260502025552 | 61 | 360 | 3.0 | 12.0 | 0.00 | 0.00 | 0.00 | 60 | 1015.8 |
| 20260502025052 | 61 | 360 | 4.0 | 12.0 | 0.00 | 0.00 | 0.00 | 60 | 1015.7 |
| 20260502024556 | 61 | 360 | 2.0 | 5.0 | 0.00 | 0.00 | 0.00 | 60 | 1015.4 |
| 20260502024052 | 61 | 360 | 1.0 | 4.0 | 0.00 | 0.00 | 0.00 | 60 | 1015.5 |
| 20260502023554 | 61 | 360 | 0.0 | 4.0 | 0.00 | 0.00 | 0.00 | 62 | 1015.5 |
| 20260502023055 | 61 | 360 | 0.0 | 4.0 | 0.00 | 0.00 | 0.00 | 62 | 1015.5 |
| 20260502022552 | 61 | 360 | 1.0 | 4.0 | 0.00 | 0.00 | 0.00 | 62 | 1015.5 |
| 20260502022052 | 61 | 0 | 0.0 | 9.0 | 0.00 | 0.00 | 0.00 | 62 | 1015.4 |
| 20260502021552 | 61 | 360 | 1.0 | 9.0 | 0.00 | 0.00 | 0.00 | 62 | 1015.4 |
| 20260502021051 | 61 | 360 | 3.0 | 9.0 | 0.00 | 0.00 | 0.00 | 61 | 1015.4 |
| 20260502020552 | 61 | 360 | 2.0 | 9.0 | 0.00 | 0.00 | 0.00 | 62 | 1015.4 |
| 20260502020059 | 61 | 360 | 2.0 | 9.0 | 0.00 | 0.00 | 0.00 | 62 | 1015.4 |
| 20260502015552 | 61 | 360 | 2.0 | 4.0 | 0.00 | 0.00 | 0.00 | 63 | 1015.3 |
| 20260502015052 | 61 | 360 | 1.0 | 4.0 | 0.00 | 0.00 | 0.00 | 65 | 1015.2 |
| 20260502014553 | 61 | 0 | 0.0 | 2.0 | 0.00 | 0.00 | 0.00 | 65 | 1015.0 |
| 20260502014052 | 61 | 0 | 0.0 | 3.0 | 0.00 | 0.00 | 0.00 | 66 | 1015.2 |
| 20260502013555 | 61 | 0 | 0.0 | 3.0 | 0.00 | 0.00 | 0.00 | 67 | 1015.0 |
| 20260502013052 | 61 | 360 | 0.0 | 2.0 | 0.00 | 0.00 | 0.00 | 67 | 1015.1 |
| 20260502012554 | 62 | 0 | 0.0 | 2.0 | 0.00 | 0.00 | 0.00 | 67 | 1014.9 |
| 20260502012052 | 62 | 0 | 0.0 | 3.0 | 0.00 | 0.00 | 0.00 | 66 | 1014.9 |
| 20260502011553 | 62 | 0 | 0.0 | 3.0 | 0.00 | 0.00 | 0.00 | 65 | 1014.7 |
| 20260502011053 | 62 | 0 | 0.0 | 0.0 | 0.00 | 0.00 | 0.00 | 67 | 1014.7 |
| 20260502010552 | 62 | 0 | 0.0 | 2.0 | 0.00 | 0.00 | 0.00 | 66 | 1014.5 |
| 20260502005552 | 62 | 0 | 0.0 | 2.0 | 0.00 | 0.00 | 0.00 | 66 | 1014.2 |
| 20260502005053 | 63 | 0 | 0.0 | 2.0 | 0.00 | 0.00 | 0.00 | 64 | 1014.2 |
| 20260502004553 | 63 | 0 | 0.0 | 2.0 | 0.00 | 0.00 | 0.00 | 64 | 1014.1 |
| 20260502004052 | 63 | 0 | 0.0 | 0.0 | 0.00 | 0.00 | 0.00 | 64 | 1014.0 |
| 20260502003552 | 63 | 0 | 0.0 | 1.0 | 0.00 | 0.00 | 0.00 | 63 | 1013.9 |
| 20260502003053 | 63 | 0 | 0.0 | 1.0 | 0.00 | 0.00 | 0.00 | 63 | 1013.9 |
| 20260502002552 | 63 | 0 | 0.0 | 1.0 | 0.00 | 0.00 | 0.00 | 63 | 1014.0 |
| 20260502002052 | 64 | 0 | 0.0 | 0.0 | 0.00 | 0.00 | 0.00 | 60 | 1014.0 |
| 20260502001600 | 64 | 0 | 0.0 | 0.0 | 0.00 | 0.00 | 0.00 | 61 | 1013.8 |
| 20260502001053 | 64 | 0 | 0.0 | 0.0 | 0.00 | 0.00 | 0.00 | 60 | 1013.5 |
| 20260502000552 | 64 | 0 | 0.0 | 0.0 | 0.00 | 0.00 | 0.00 | 59 | 1013.7 |
| 20260502000051 | 64 | 0 | 0.0 | 0.0 | 0.00 | 0.00 | 0.00 | 61 | 1013.7 |
| 20260501235554 | 65 | 0 | 0.0 | 0.0 | 0.00 | 0.00 | 0.00 | 59 | 1013.8 |
| 20260501235052 | 65 | 0 | 0.0 | 0.0 | 0.00 | 0.00 | 0.00 | 59 | 1013.8 |
| 20260501234551 | 65 | 0 | 0.0 | 0.0 | 0.00 | 0.00 | 0.00 | 59 | 1013.6 |
| 20260501234053 | 65 | 0 | 0.0 | 0.0 | 0.00 | 0.00 | 0.00 | 59 | 1013.5 |
| 20260501233552 | 65 | 0 | 0.0 | 0.0 | 0.00 | 0.00 | 0.00 | 56 | 1013.7 |
| 20260501233107 | 65 | 0 | 0.0 | 0.0 | 0.00 | 0.00 | 0.00 | 57 | 1013.8 |
| 20260501232548 | 65 | 0 | 0.0 | 0.0 | 0.00 | 0.00 | 0.00 | 58 | 1013.8 |
| 20260501232051 | 65 | 0 | 0.0 | 0.0 | 0.00 | 0.00 | 0.00 | 57 | 1013.8 |
| 20260501231602 | 66 | 0 | 0.0 | 0.0 | 0.00 | 0.00 | 0.00 | 58 | 1013.6 |
| 20260501231051 | 66 | 0 | 0.0 | 1.0 | 0.00 | 0.00 | 0.00 | 56 | 1013.6 |
| 20260501230552 | 66 | 0 | 0.0 | 2.0 | 0.00 | 0.00 | 0.00 | 55 | 1013.7 |
| 20260501230053 | 66 | 360 | 0.0 | 2.0 | 0.00 | 0.00 | 0.00 | 53 | 1013.4 |
| 20260501225552 | 66 | 0 | 0.0 | 1.0 | 0.00 | 0.00 | 0.00 | 54 | 1013.2 |
| 20260501225053 | 67 | 0 | 0.0 | 0.0 | 0.00 | 0.00 | 0.00 | 55 | 1013.2 |
| 20260501224552 | 67 | 0 | 0.0 | 0.0 | 0.00 | 0.00 | 0.00 | 54 | 1013.1 |
| 20260501224056 | 67 | 0 | 0.0 | 0.0 | 0.00 | 0.00 | 0.00 | 53 | 1013.1 |
| 20260501223556 | 67 | 0 | 0.0 | 2.0 | 0.00 | 0.00 | 0.00 | 54 | 1013.1 |
| 20260501223122 | 67 | 0 | 0.0 | 2.0 | 0.00 | 0.00 | 0.00 | 52 | 1013.1 |
| 20260501222552 | 67 | 0 | 0.0 | 3.0 | 0.00 | 0.00 | 0.00 | 52 | 1013.1 |
| 20260501222054 | 67 | 0 | 0.0 | 3.0 | 0.00 | 0.00 | 0.00 | 52 | 1013.1 |
| 20260501221552 | 67 | 360 | 0.0 | 2.0 | 0.00 | 0.00 | 0.00 | 55 | 1013.0 |
| 20260501221051 | 67 | 0 | 0.0 | 2.0 | 0.00 | 0.00 | 0.00 | 53 | 1012.8 |
| 20260501220551 | 68 | 0 | 0.0 | 2.0 | 0.00 | 0.00 | 0.00 | 51 | 1012.9 |